Regional Weather Roundup
Issued by NWS

Home | Current Version | Previous Version | Graphics & Text | Print | Product List | Glossary On
Versions: 1 2 3 4 5 6 7 8 9 10 11 12 13 14 15 16 17 18 19 20 21 22 23 24 25 26 27 28 29 30 31 32 33 34 35 36 37 38 39 40 41 42 43 44 45 46 47 48 49 50
000
ASUS43 KLOT 280300
RWRIL

ILLINOIS REGIONAL WEATHER ROUNDUP
NATIONAL WEATHER SERVICE CHICAGO/ROMEOVILLE IL
1000 PM CDT MON APR 27 2015

NOTE: "FAIR" INDICATES FEW OR NO CLOUDS BELOW 12,000 FEET WITH NO
SIGNIFICANT WEATHER AND/OR OBSTRUCTIONS TO VISIBILITY.

* THESE STATIONS ARE NOT UNDER NWS QUALITY CONTROL. THEY ALSO MAY NOT
  REPORT WEATHER SUCH AS PRECIPITATION OR FOG.

ILZ001-002-007-009-015-016-024-280400-
NORTHWEST ILLINOIS

CITY           SKY/WX    TMP DP  RH WIND       PRES   REMARKS
MOLINE         CLEAR     49  39  68 CALM      30.10R
$$

ILZ003-004-008-010-011-017-018-280400-
NORTH CENTRAL ILLINOIS

CITY           SKY/WX    TMP DP  RH WIND       PRES   REMARKS
ROCKFORD       NOT AVBL
$$

ILZ005-006-012>014-019>023-280400-
NORTHEAST ILLINOIS

CITY           SKY/WX    TMP DP  RH WIND       PRES   REMARKS
CHICAGO-OHARE  PTCLDY    43  32  65 NE6       30.13R
CHICAGO-MIDWAY NOT AVBL
AURORA         CLEAR     44  33  65 E5        30.12R
WAUKEGAN       NOT AVBL
DUPAGE AIRPORT CLEAR     42  32  67 NE5       30.12R
WHEELING       CLEAR     42  32  67 CALM      30.15R
NORTHERLY ISL    N/A     41  34  76 MISG        N/A
$$

LMZ740>746-280400-
SOUTHERN LAKE MICHIGAN

STATION/POSITION SKY/WX   TEMP    WIND        PRES    VSBY  WAVE
                          AIR SEA DIR/SP/G                  HT/PER
                          (F)     (DEG/KT/KT) (MB)    (MI)  (FT/S)
HARRISON CRIB              41     350/  6/  8   N/A
BURNHAM HARBOR             43      20/  8/  9   N/A
CALUMET HARBOR             42     360/  4/  5   N/A
BURNS HARBOR               43     350/  4/  5 1020.3R
MICHIGAN CITY              43      50/  5/  6   N/A
MICHIGAN CITY 6N           44 45   90/  8/ 10   N/A           3/ 5
$$

ILZ025>027-034>036-040-047-049-050-058-095>099-280400-
WEST-CENTRAL ILLINOIS

CITY           SKY/WX    TMP DP  RH WIND       PRES   REMARKS
$$

ILZ028>032-037-038-041>044-048-051>054-059>061-280400-
CENTRAL ILLINOIS

CITY           SKY/WX    TMP DP  RH WIND       PRES   REMARKS
PEORIA         NOT AVBL
SPRINGFIELD    CLEAR     51  39  63 CALM      30.10R
TAYLORVILLE    NOT AVBL
$$

ILZ033-039-045-046-055>057-062-063-280400-
EAST-CENTRAL ILLINOIS

CITY           SKY/WX    TMP DP  RH WIND       PRES   REMARKS
MATTOON        CLEAR     47  36  65 NE8       30.10R
$$

ILZ079-100>102-280400-
SOUTHWEST ILLINOIS

CITY           SKY/WX    TMP DP  RH WIND       PRES   REMARKS
CAHOKIA*       CLEAR     54  40  59 CALM      30.08R
$$

ILZ064>066-069>071-074>076-080>082-084>086-088>090-092>094-280400-
SOUTH-CENTRAL ILLINOIS

CITY           SKY/WX    TMP DP  RH WIND       PRES   REMARKS
CARBONDALE     PTCLDY    54  39  57 NE7       30.06R
$$

ILZ067-068-072-073-078-083-087-091-280400-
SOUTHEAST ILLINOIS

CITY           SKY/WX    TMP DP  RH WIND       PRES   REMARKS
LAWRENCEVILLE  CLEAR     50  37  61 N13       30.08S
$$

ABBREVIATIONS USED IN REMARKS
   TC - TEMPERATURE IN CELSIUS
  WCI - WIND CHILL INDEX
   HX - HEAT INDEX
  VSB - VISIBILITY
$$



USA.gov is the U.S. government's official web portal to all federal, state and local government web resources and services.